Time,TemperatureF,DewpointF,PressureIn,WindDirection,WindDirectionDegrees,WindSpeedMPH,WindSpeedGustMPH,Humidity,HourlyPrecipIn,Conditions,Clouds,dailyrainin,SoftwareType,DateUTC
2013-01-12 00:02:00,28.5,21.3,29.92,WSW,248,4.4,4.4,74,0.00,,,0.00,WUHU216HW,2013-01-11 23:02:00,
2013-01-12 10:21:00,31.8,22.1,29.97,South,180,3.5,3.5,67,0.00,,,0.00,WUHU216HW,2013-01-12 09:21:00,
2013-01-12 10:26:00,31.8,22.4,29.97,WSW,248,5.3,5.3,68,0.00,,,0.00,WUHU216HW,2013-01-12 09:26:00,
2013-01-12 10:31:00,31.2,21.9,29.98,SW,225,3.1,8.7,68,0.00,,,0.00,WUHU216HW,2013-01-12 09:31:00,
2013-01-12 10:36:00,31.1,22.1,29.98,SSW,203,5.8,8.7,69,0.00,,,0.00,WUHU216HW,2013-01-12 09:36:00,
2013-01-12 10:41:00,31.1,22.1,29.99,West,270,4.0,8.7,69,0.00,,,0.00,WUHU216HW,2013-01-12 09:41:00,
2013-01-12 10:46:00,31.2,22.2,29.98,WNW,293,5.1,7.3,69,0.00,,,0.00,WUHU216HW,2013-01-12 09:46:00,
2013-01-12 10:51:00,30.5,21.5,29.98,West,270,6.0,11.8,69,0.00,,,0.00,WUHU216HW,2013-01-12 09:51:00,
2013-01-12 10:56:00,29.8,20.8,29.98,West,270,2.9,11.8,69,0.00,,,0.00,WUHU216HW,2013-01-12 09:56:00,
2013-01-12 11:01:00,29.4,20.9,29.98,WSW,248,3.1,3.5,70,0.00,,,0.00,WUHU216HW,2013-01-12 10:01:00,
2013-01-12 11:06:00,29.3,20.7,29.99,West,270,4.4,10.5,70,0.00,,,0.00,WUHU216HW,2013-01-12 10:06:00,
2013-01-12 11:11:00,29.3,20.7,29.98,NW,315,3.8,10.5,70,0.00,,,0.00,WUHU216HW,2013-01-12 10:11:00,
2013-01-12 11:16:00,29.4,21.0,29.98,NW,315,8.0,8.2,70,0.00,,,0.00,WUHU216HW,2013-01-12 10:16:00,
2013-01-12 11:21:00,29.8,21.2,29.98,West,270,5.3,8.2,70,0.00,,,0.00,WUHU216HW,2013-01-12 10:21:00,
2013-01-12 11:26:00,30.0,21.3,29.99,SW,225,7.6,8.9,70,0.00,,,0.00,WUHU216HW,2013-01-12 10:26:00,
2013-01-12 11:31:00,30.0,21.3,29.98,WSW,248,2.9,8.9,70,0.00,,,0.00,WUHU216HW,2013-01-12 10:31:00,
2013-01-12 11:36:00,30.0,21.3,29.98,WSW,248,4.4,11.1,70,0.00,,,0.00,WUHU216HW,2013-01-12 10:36:00,
2013-01-12 11:41:00,30.0,21.3,29.98,NW,315,4.4,11.1,70,0.00,,,0.00,WUHU216HW,2013-01-12 10:41:00,
2013-01-12 11:46:00,30.3,21.9,29.98,East,90,0.0,8.0,70,0.00,,,0.00,WUHU216HW,2013-01-12 10:46:00,
2013-01-12 11:51:00,31.2,22.2,29.98,NW,315,2.2,3.8,69,0.00,,,0.00,WUHU216HW,2013-01-12 10:51:00,
2013-01-12 11:56:00,30.9,21.9,29.98,North,0,0.0,4.4,69,0.00,,,0.00,WUHU216HW,2013-01-12 10:56:00,
2013-01-12 12:01:00,30.9,21.9,29.97,WNW,293,3.1,4.4,69,0.00,,,0.00,WUHU216HW,2013-01-12 11:01:00,
2013-01-12 12:06:00,30.9,21.3,29.98,WSW,248,7.6,7.6,68,0.00,,,0.00,WUHU216HW,2013-01-12 11:06:00,
2013-01-12 12:11:00,30.9,21.9,29.98,NW,315,3.1,7.6,69,0.00,,,0.00,WUHU216HW,2013-01-12 11:11:00,
2013-01-12 12:16:00,31.1,21.7,29.98,West,270,0.0,4.9,68,0.00,,,0.00,WUHU216HW,2013-01-12 11:16:00,
2013-01-12 12:21:00,31.2,21.9,29.98,SW,225,4.4,4.9,68,0.00,,,0.00,WUHU216HW,2013-01-12 11:21:00,
2013-01-12 12:26:00,31.6,22.2,29.98,WNW,293,10.7,10.7,68,0.00,,,0.00,WUHU216HW,2013-01-12 11:26:00,
2013-01-12 12:31:00,31.8,22.1,29.98,NW,315,5.3,10.7,67,0.00,,,0.00,WUHU216HW,2013-01-12 11:31:00,
2013-01-12 12:36:00,32.3,22.2,29.97,NW,315,5.5,5.5,66,0.00,,,0.00,WUHU216HW,2013-01-12 11:36:00,
2013-01-12 12:41:00,32.9,22.7,29.98,NNW,338,2.0,5.5,66,0.00,,,0.00,WUHU216HW,2013-01-12 11:41:00,
2013-01-12 12:46:00,32.7,22.2,29.97,WNW,293,5.1,7.1,65,0.00,,,0.00,WUHU216HW,2013-01-12 11:46:00,
2013-01-12 12:51:00,32.7,22.2,29.97,NNW,338,2.4,7.1,65,0.00,,,0.00,WUHU216HW,2013-01-12 11:51:00,
2013-01-12 12:56:00,33.0,22.5,29.96,West,270,1.3,5.8,65,0.00,,,0.00,WUHU216HW,2013-01-12 11:56:00,
2013-01-12 13:01:00,33.0,21.8,29.96,West,270,5.3,5.8,63,0.00,,,0.00,WUHU216HW,2013-01-12 12:01:00,
2013-01-12 13:06:00,32.1,21.2,29.97,South,180,0.0,5.3,64,0.00,,,0.00,WUHU216HW,2013-01-12 12:06:00,
2013-01-12 13:11:00,31.2,20.4,29.97,NW,315,2.2,4.2,65,0.00,,,0.00,WUHU216HW,2013-01-12 12:11:00,
2013-01-12 13:16:00,30.7,20.3,29.96,SSW,203,0.0,4.2,65,0.00,,,0.00,WUHU216HW,2013-01-12 12:16:00,
2013-01-12 13:21:00,30.9,20.8,29.96,SE,135,0.0,7.3,66,0.00,,,0.00,WUHU216HW,2013-01-12 12:21:00,
2013-01-12 13:26:00,30.9,21.2,29.97,SSE,158,2.2,7.3,67,0.00,,,0.00,WUHU216HW,2013-01-12 12:26:00,
2013-01-12 13:31:00,31.1,21.3,29.97,NW,315,1.5,4.4,67,0.00,,,0.00,WUHU216HW,2013-01-12 12:31:00,
2013-01-12 13:36:00,31.2,21.5,29.97,SSW,203,0.0,4.4,67,0.00,,,0.00,WUHU216HW,2013-01-12 12:36:00,
2013-01-12 13:41:00,31.8,22.1,29.97,West,270,0.6,3.8,67,0.00,,,0.00,WUHU216HW,2013-01-12 12:41:00,
2013-01-12 13:46:00,31.2,21.5,29.97,WSW,248,1.5,3.8,66,0.00,,,0.00,WUHU216HW,2013-01-12 12:46:00,
2013-01-12 13:51:00,31.2,21.2,29.98,South,180,2.0,2.9,66,0.00,,,0.00,WUHU216HW,2013-01-12 12:51:00,
2013-01-12 13:56:00,31.1,21.3,29.98,WSW,248,0.0,3.3,67,0.00,,,0.00,WUHU216HW,2013-01-12 12:56:00,
2013-01-12 14:02:00,31.1,21.5,29.98,South,180,0.0,3.3,67,0.00,,,0.00,WUHU216HW,2013-01-12 13:02:00,
2013-01-12 14:07:00,31.2,21.5,29.97,South,180,0.0,0.0,67,0.00,,,0.00,WUHU216HW,2013-01-12 13:07:00,
2013-01-12 14:12:00,31.2,21.5,29.98,WSW,248,2.4,2.9,67,0.00,,,0.00,WUHU216HW,2013-01-12 13:12:00,
2013-01-12 14:17:00,31.2,21.5,29.98,SW,225,0.0,2.9,67,0.00,,,0.00,WUHU216HW,2013-01-12 13:17:00,
2013-01-12 14:22:00,31.2,21.5,29.98,WNW,293,0.0,1.7,67,0.00,,,0.00,WUHU216HW,2013-01-12 13:22:00,
2013-01-12 14:27:00,30.9,21.2,29.99,NW,315,0.0,1.7,67,0.00,,,0.00,WUHU216HW,2013-01-12 13:27:00,
2013-01-12 14:32:00,31.1,21.3,29.98,West,270,0.0,1.5,67,0.00,,,0.00,WUHU216HW,2013-01-12 13:32:00,
2013-01-12 14:37:00,31.1,21.3,29.98,SSE,158,0.0,0.0,67,0.00,,,0.00,WUHU216HW,2013-01-12 13:37:00,
2013-01-12 14:42:00,31.1,21.3,29.99,North,0,0.0,0.6,67,0.00,,,0.00,WUHU216HW,2013-01-12 13:42:00,
2013-01-12 14:47:00,30.9,21.5,29.99,SSE,158,0.0,5.3,68,0.00,,,0.00,WUHU216HW,2013-01-12 13:47:00,
2013-01-12 14:52:00,30.9,21.5,29.99,SSW,203,1.7,5.3,68,0.00,,,0.00,WUHU216HW,2013-01-12 13:52:00,
2013-01-12 14:57:00,30.9,21.9,29.99,West,270,0.0,3.1,69,0.00,,,0.00,WUHU216HW,2013-01-12 13:57:00,
2013-01-12 15:02:00,30.9,21.9,29.99,ESE,113,0.0,0.0,69,0.00,,,0.00,WUHU216HW,2013-01-12 14:02:00,
2013-01-12 15:07:00,30.9,21.9,29.99,South,180,0.0,0.0,69,0.00,,,0.00,WUHU216HW,2013-01-12 14:07:00,
2013-01-12 15:12:00,30.9,22.2,29.99,West,270,0.0,2.0,70,0.00,,,0.00,WUHU216HW,2013-01-12 14:12:00,
2013-01-12 15:17:00,30.9,22.2,29.99,South,180,0.0,2.0,70,0.00,,,0.00,WUHU216HW,2013-01-12 14:17:00,
2013-01-12 15:22:00,30.7,22.1,29.99,West,270,0.0,3.8,70,0.00,,,0.00,WUHU216HW,2013-01-12 14:22:00,
2013-01-12 15:27:00,30.7,22.4,30.00,WNW,293,2.0,3.8,71,0.00,,,0.00,WUHU216HW,2013-01-12 14:27:00,
2013-01-12 15:32:00,30.7,22.4,30.00,NNW,338,0.0,2.0,71,0.00,,,0.00,WUHU216HW,2013-01-12 14:32:00,
2013-01-12 15:37:00,30.7,22.7,30.01,NW,315,0.0,1.5,72,0.00,,,0.00,WUHU216HW,2013-01-12 14:37:00,
2013-01-12 15:42:00,30.7,22.7,30.01,WNW,293,0.0,0.0,72,0.00,,,0.00,WUHU216HW,2013-01-12 14:42:00,
2013-01-12 15:47:00,30.7,22.7,30.02,SSW,203,0.0,0.0,72,0.00,,,0.00,WUHU216HW,2013-01-12 14:47:00,
2013-01-12 15:52:00,30.5,22.8,30.02,WSW,248,0.0,0.0,73,0.00,,,0.00,WUHU216HW,2013-01-12 14:52:00,
2013-01-12 15:57:00,30.5,22.8,30.02,WSW,248,0.0,0.0,73,0.00,,,0.00,WUHU216HW,2013-01-12 14:57:00,
2013-01-12 16:02:00,30.3,22.7,30.02,WSW,248,0.0,0.0,73,0.00,,,0.00,WUHU216HW,2013-01-12 15:02:00,
2013-01-12 16:07:00,30.3,22.7,30.02,NNW,338,0.0,0.0,73,0.00,,,0.00,WUHU216HW,2013-01-12 15:07:00,
2013-01-12 16:12:00,30.3,22.7,30.02,NNE,23,0.0,0.0,73,0.00,,,0.00,WUHU216HW,2013-01-12 15:12:00,
2013-01-12 16:17:00,30.3,23.0,30.02,North,0,0.0,0.0,74,0.00,,,0.00,WUHU216HW,2013-01-12 15:17:00,
2013-01-12 16:22:00,30.2,23.0,30.02,North,0,0.0,0.0,74,0.00,,,0.00,WUHU216HW,2013-01-12 15:22:00,
2013-01-12 16:27:00,30.0,22.6,30.03,WNW,293,0.0,0.0,74,0.00,,,0.00,WUHU216HW,2013-01-12 15:27:00,
2013-01-12 16:32:00,29.8,22.8,30.03,WSW,248,0.0,0.0,75,0.00,,,0.00,WUHU216HW,2013-01-12 15:32:00,
2013-01-12 16:37:00,29.4,22.4,30.02,West,270,0.0,0.0,75,0.00,,,0.00,WUHU216HW,2013-01-12 15:37:00,
2013-01-12 16:42:00,29.1,22.4,30.02,WSW,248,0.0,0.0,76,0.00,,,0.00,WUHU216HW,2013-01-12 15:42:00,
2013-01-12 16:47:00,28.9,22.2,30.03,WNW,293,0.0,0.0,76,0.00,,,0.00,WUHU216HW,2013-01-12 15:47:00,
2013-01-12 16:52:00,28.5,22.2,30.02,WNW,293,0.0,0.0,77,0.00,,,0.00,WUHU216HW,2013-01-12 15:52:00,
2013-01-12 16:57:00,28.5,22.2,30.03,West,270,0.0,0.0,77,0.00,,,0.00,WUHU216HW,2013-01-12 15:57:00,
2013-01-12 17:02:00,28.2,21.9,30.03,WNW,293,0.0,0.0,77,0.00,,,0.00,WUHU216HW,2013-01-12 16:02:00,
2013-01-12 17:07:00,28.2,22.2,30.03,SW,225,0.0,0.0,78,0.00,,,0.00,WUHU216HW,2013-01-12 16:07:00,
2013-01-12 17:12:00,28.2,22.2,30.03,West,270,0.0,0.0,78,0.00,,,0.00,WUHU216HW,2013-01-12 16:12:00,
2013-01-12 17:17:00,28.5,22.5,30.03,WSW,248,1.1,1.3,78,0.00,,,0.00,WUHU216HW,2013-01-12 16:17:00,
2013-01-12 17:22:00,28.9,23.2,30.04,WNW,293,0.0,1.3,79,0.00,,,0.00,WUHU216HW,2013-01-12 16:22:00,
2013-01-12 17:27:00,29.1,23.3,30.04,WNW,293,0.0,0.0,79,0.00,,,0.00,WUHU216HW,2013-01-12 16:27:00,
2013-01-12 17:32:00,29.1,23.3,30.04,WNW,293,0.0,0.0,79,0.00,,,0.00,WUHU216HW,2013-01-12 16:32:00,
2013-01-12 17:37:00,29.3,23.5,30.04,NW,315,0.0,0.0,79,0.00,,,0.00,WUHU216HW,2013-01-12 16:37:00,
2013-01-12 17:42:00,29.3,23.5,30.03,West,270,1.3,2.0,79,0.00,,,0.00,WUHU216HW,2013-01-12 16:42:00,
2013-01-12 17:47:00,29.3,23.5,30.03,NW,315,0.0,2.0,79,0.00,,,0.00,WUHU216HW,2013-01-12 16:47:00,
2013-01-12 17:52:00,29.1,23.7,30.04,West,270,4.4,4.4,80,0.00,,,0.00,WUHU216HW,2013-01-12 16:52:00,
2013-01-12 17:57:00,29.1,23.7,30.04,WSW,248,2.4,4.4,80,0.00,,,0.00,WUHU216HW,2013-01-12 16:57:00,
2013-01-12 18:03:00,28.9,23.5,30.04,NE,45,0.0,2.9,80,0.00,,,0.00,WUHU216HW,2013-01-12 17:03:00,
2013-01-12 18:08:00,28.9,23.8,30.03,West,270,1.5,3.1,81,0.00,,,0.00,WUHU216HW,2013-01-12 17:08:00,
2013-01-12 18:13:00,28.5,23.6,30.03,West,270,0.0,3.1,81,0.00,,,0.00,WUHU216HW,2013-01-12 17:13:00,
2013-01-12 18:18:00,28.5,23.4,30.02,WSW,248,0.0,3.8,81,0.00,,,0.00,WUHU216HW,2013-01-12 17:18:00,
2013-01-12 18:23:00,28.5,23.4,30.02,NW,315,0.0,3.8,81,0.00,,,0.00,WUHU216HW,2013-01-12 17:23:00,
2013-01-12 18:28:00,28.2,23.3,30.03,WNW,293,0.0,1.3,82,0.00,,,0.00,WUHU216HW,2013-01-12 17:28:00,
2013-01-12 18:33:00,28.0,23.2,30.02,West,270,0.0,0.8,82,0.00,,,0.00,WUHU216HW,2013-01-12 17:33:00,
2013-01-12 18:38:00,28.0,23.0,30.02,West,270,0.0,0.0,82,0.00,,,0.00,WUHU216HW,2013-01-12 17:38:00,
2013-01-12 18:43:00,27.6,22.8,30.02,North,0,0.0,0.0,82,0.00,,,0.00,WUHU216HW,2013-01-12 17:43:00,
2013-01-12 18:48:00,27.5,22.6,30.02,North,0,0.0,0.8,82,0.00,,,0.00,WUHU216HW,2013-01-12 17:48:00,
2013-01-12 18:53:00,27.1,22.3,30.02,WNW,293,0.0,0.8,82,0.00,,,0.00,WUHU216HW,2013-01-12 17:53:00,
2013-01-12 18:58:00,26.9,22.1,30.02,WNW,293,0.0,0.0,82,0.00,,,0.00,WUHU216HW,2013-01-12 17:58:00,
2013-01-12 19:03:00,26.6,21.9,30.02,WSW,248,0.0,0.0,82,0.00,,,0.00,WUHU216HW,2013-01-12 18:03:00,
2013-01-12 19:08:00,26.4,21.8,30.01,West,270,0.0,0.0,83,0.00,,,0.00,WUHU216HW,2013-01-12 18:08:00,
2013-01-12 19:13:00,26.4,21.8,30.01,West,270,0.0,0.6,83,0.00,,,0.00,WUHU216HW,2013-01-12 18:13:00,
2013-01-12 19:18:00,26.6,22.0,30.01,West,270,0.0,1.3,83,0.00,,,0.00,WUHU216HW,2013-01-12 18:18:00,
2013-01-12 19:23:00,26.6,22.0,30.01,NW,315,0.0,2.2,83,0.00,,,0.00,WUHU216HW,2013-01-12 18:23:00,
2013-01-12 19:28:00,26.7,22.2,30.01,West,270,0.0,2.2,83,0.00,,,0.00,WUHU216HW,2013-01-12 18:28:00,
2013-01-12 19:33:00,26.7,22.2,30.02,West,270,0.0,2.0,83,0.00,,,0.00,WUHU216HW,2013-01-12 18:33:00,
2013-01-12 19:38:00,26.7,22.2,30.01,West,270,1.3,2.0,83,0.00,,,0.00,WUHU216HW,2013-01-12 18:38:00,
2013-01-12 19:43:00,26.7,22.2,30.01,West,270,0.0,3.8,83,0.00,,,0.00,WUHU216HW,2013-01-12 18:43:00,
2013-01-12 19:48:00,26.9,22.7,30.02,WSW,248,2.6,3.8,84,0.00,,,0.00,WUHU216HW,2013-01-12 18:48:00,
2013-01-12 19:53:00,26.9,22.4,30.02,West,270,0.8,3.8,83,0.00,,,0.00,WUHU216HW,2013-01-12 18:53:00,
2013-01-12 19:58:00,27.1,22.8,30.02,West,270,1.1,2.6,84,0.00,,,0.00,WUHU216HW,2013-01-12 18:58:00,
2013-01-12 20:03:00,27.1,22.8,30.02,West,270,1.1,4.6,84,0.00,,,0.00,WUHU216HW,2013-01-12 19:03:00,
2013-01-12 20:08:00,27.3,23.0,30.01,West,270,0.0,4.6,84,0.00,,,0.00,WUHU216HW,2013-01-12 19:08:00,
2013-01-12 20:13:00,27.5,23.2,30.01,West,270,0.0,2.6,84,0.00,,,0.00,WUHU216HW,2013-01-12 19:13:00,
2013-01-12 20:18:00,27.6,23.1,30.01,WNW,293,1.3,2.4,83,0.00,,,0.00,WUHU216HW,2013-01-12 19:18:00,
2013-01-12 20:23:00,27.6,23.4,30.01,NW,315,2.0,2.2,84,0.00,,,0.00,WUHU216HW,2013-01-12 19:23:00,
2013-01-12 20:28:00,27.6,23.4,30.02,WNW,293,1.3,3.1,84,0.00,,,0.00,WUHU216HW,2013-01-12 19:28:00,
2013-01-12 20:33:00,28.0,23.5,30.02,WSW,248,0.0,5.1,83,0.00,,,0.00,WUHU216HW,2013-01-12 19:33:00,
2013-01-12 20:38:00,28.0,23.5,30.02,West,270,1.3,5.1,83,0.00,,,0.00,WUHU216HW,2013-01-12 19:38:00,
2013-01-12 20:43:00,28.0,23.5,30.02,West,270,0.0,4.6,83,0.00,,,0.00,WUHU216HW,2013-01-12 19:43:00,
2013-01-12 20:48:00,28.0,23.5,30.02,WSW,248,0.0,4.6,83,0.00,,,0.00,WUHU216HW,2013-01-12 19:48:00,
2013-01-12 20:53:00,27.6,23.1,30.02,West,270,0.6,4.6,83,0.00,,,0.00,WUHU216HW,2013-01-12 19:53:00,
2013-01-12 20:58:00,27.8,23.3,30.02,West,270,0.0,3.5,83,0.00,,,0.00,WUHU216HW,2013-01-12 19:58:00,
2013-01-12 21:03:00,28.0,23.5,30.02,WNW,293,2.4,3.5,83,0.00,,,0.00,WUHU216HW,2013-01-12 20:03:00,
2013-01-12 21:08:00,28.0,23.5,30.03,WNW,293,1.1,3.3,83,0.00,,,0.00,WUHU216HW,2013-01-12 20:08:00,
2013-01-12 21:13:00,28.0,23.5,30.03,West,270,0.8,2.9,83,0.00,,,0.00,WUHU216HW,2013-01-12 20:13:00,
2013-01-12 21:18:00,28.0,23.5,30.04,NW,315,5.5,6.0,83,0.00,,,0.00,WUHU216HW,2013-01-12 20:18:00,
2013-01-12 21:23:00,28.0,23.5,30.04,NW,315,2.6,6.0,83,0.00,,,0.00,WUHU216HW,2013-01-12 20:23:00,
2013-01-12 21:28:00,28.0,23.5,30.05,WNW,293,3.1,4.4,83,0.00,,,0.00,WUHU216HW,2013-01-12 20:28:00,
2013-01-12 21:33:00,27.6,23.1,30.05,NW,315,3.1,4.2,83,0.00,,,0.00,WUHU216HW,2013-01-12 20:33:00,
2013-01-12 21:38:00,27.6,23.1,30.06,NW,315,4.4,4.4,83,0.00,,,0.00,WUHU216HW,2013-01-12 20:38:00,
2013-01-12 21:43:00,27.6,23.4,30.06,NW,315,2.4,6.4,84,0.00,,,0.00,WUHU216HW,2013-01-12 20:43:00,
2013-01-12 21:48:00,27.8,23.6,30.06,WNW,293,3.1,6.4,84,0.00,,,0.00,WUHU216HW,2013-01-12 20:48:00,
2013-01-12 21:53:00,27.6,23.4,30.06,NNW,338,0.0,5.3,84,0.00,,,0.00,WUHU216HW,2013-01-12 20:53:00,
2013-01-12 21:58:00,27.6,23.4,30.06,NW,315,0.8,3.1,84,0.00,,,0.00,WUHU216HW,2013-01-12 20:58:00,
2013-01-12 22:03:00,27.6,23.4,30.06,West,270,0.0,3.1,84,0.00,,,0.00,WUHU216HW,2013-01-12 21:03:00,
2013-01-12 22:08:00,27.6,23.4,30.07,NW,315,3.1,3.1,84,0.00,,,0.00,WUHU216HW,2013-01-12 21:08:00,
2013-01-12 22:13:00,27.6,23.4,30.06,West,270,2.0,3.1,84,0.00,,,0.00,WUHU216HW,2013-01-12 21:13:00,
2013-01-12 22:18:00,27.6,23.4,30.07,WNW,293,1.1,2.4,84,0.00,,,0.00,WUHU216HW,2013-01-12 21:18:00,
2013-01-12 22:23:00,27.6,23.4,30.07,WNW,293,2.4,4.0,84,0.00,,,0.00,WUHU216HW,2013-01-12 21:23:00,
2013-01-12 22:28:00,27.6,23.4,30.07,WNW,293,1.5,4.0,84,0.00,,,0.00,WUHU216HW,2013-01-12 21:28:00,
2013-01-12 22:33:00,27.6,23.4,30.08,NW,315,2.0,4.0,84,0.00,,,0.00,WUHU216HW,2013-01-12 21:33:00,
2013-01-12 22:39:00,27.6,23.4,30.07,NW,315,0.0,4.0,84,0.00,,,0.00,WUHU216HW,2013-01-12 21:39:00,
2013-01-12 22:44:00,27.6,23.4,30.08,NW,315,0.0,1.1,84,0.00,,,0.00,WUHU216HW,2013-01-12 21:44:00,
2013-01-12 22:49:00,27.5,23.2,30.07,WNW,293,0.0,0.0,84,0.00,,,0.00,WUHU216HW,2013-01-12 21:49:00,
2013-01-12 22:54:00,27.1,22.8,30.07,West,270,0.0,0.0,84,0.00,,,0.00,WUHU216HW,2013-01-12 21:54:00,
2013-01-12 22:59:00,26.7,22.5,30.08,WNW,293,0.0,0.0,84,0.00,,,0.00,WUHU216HW,2013-01-12 21:59:00,
2013-01-12 23:04:00,26.7,22.5,30.08,WNW,293,0.0,0.0,84,0.00,,,0.00,WUHU216HW,2013-01-12 22:04:00,
2013-01-12 23:09:00,26.4,22.1,30.08,WNW,293,0.0,0.0,84,0.00,,,0.00,WUHU216HW,2013-01-12 22:09:00,
2013-01-12 23:14:00,26.2,22.2,30.09,WNW,293,0.0,0.0,85,0.00,,,0.00,WUHU216HW,2013-01-12 22:14:00,
2013-01-12 23:19:00,26.0,22.1,30.08,WNW,293,0.0,1.5,85,0.00,,,0.00,WUHU216HW,2013-01-12 22:19:00,
2013-01-12 23:24:00,26.2,22.2,30.09,SW,225,0.0,1.5,85,0.00,,,0.00,WUHU216HW,2013-01-12 22:24:00,
2013-01-12 23:29:00,26.2,22.2,30.09,WSW,248,0.0,1.7,85,0.00,,,0.00,WUHU216HW,2013-01-12 22:29:00,
2013-01-12 23:34:00,26.4,22.4,30.08,SW,225,0.0,2.9,85,0.00,,,0.00,WUHU216HW,2013-01-12 22:34:00,
2013-01-12 23:39:00,26.4,22.4,30.09,West,270,1.5,2.9,85,0.00,,,0.00,WUHU216HW,2013-01-12 22:39:00,
2013-01-12 23:44:00,26.4,22.4,30.08,WSW,248,3.1,3.1,85,0.00,,,0.00,WUHU216HW,2013-01-12 22:44:00,
2013-01-12 23:49:00,26.4,22.4,30.08,West,270,0.0,3.1,85,0.00,,,0.00,WUHU216HW,2013-01-12 22:49:00,
2013-01-12 23:54:00,26.4,22.4,30.08,West,270,0.0,1.5,85,0.00,,,0.00,WUHU216HW,2013-01-12 22:54:00,